Globalstar
NORAD ID: 38042
Int'l Code: 2011-080C
Perigee: 1,420.0 km
Apogee: 1,421.5 km
Inclination: 52.0 °
Period: 114.1 minutes
Semi major axis: 7791 km
Launch date: December 28, 2011
Source: Globalstar (GLOB)
Two Line Element Set (TLE):
1 38042U 11080C 13143.83547274 -.00000089 00000-0 84228-4 0 4563
2 38042 052.0072 101.2846 0000954 008.7485 026.5345 12.62262313 67070
Source:
NASA's NSSDC Master Catalog entry for GLOBALSTAR M082